Weather History for Santa Barbara, CA

Change the Weather History Date:

Thursday, July 11, 2013

  Actual Average Record
Temperature  
Mean Temperature 69 °F 65 °F  
Max Temperature 77 °F 73 °F 88 °F (1964)
Min Temperature 61 °F 58 °F 50 °F (1952)
Degree Days  
Heating Degree Days 0 1  
Month to date heating degree days 0 11  
Since 1 June heating degree days 43 101  
Since 1 July heating degree days 0 11  
Cooling Degree Days 4 1  
Month to date cooling degree days 33 11  
Year to date cooling degree days 125 39  
Since 1 June cooling degree days 68 25  
Growing Degree Days 20 (Base 50)    
Moisture  
Dew Point 61 °F    
Average Humidity 79    
Maximum Humidity 93    
Minimum Humidity 64    
Precipitation  
Precipitation 0.00 in 0.00 in 0.01 in (1988)
Month to date precipitation 0.00 0.02  
Year to date precipitation 3.35 12.07  
Since 1 July precipitation 0.00 0.02  
Sea Level Pressure  
Sea Level Pressure 29.92 in    
Wind  
Wind Speed 3 mph (South)    
Max Wind Speed 9 mph    
Max Gust Speed -    
Visibility 10 miles    
Events      
T = Trace of Precipitation, MM = Missing Value Source: NWS Daily Summary

Daily Weather History Graph

Daily Weather History Graph

Search for Another Location

Airport:

Trip Planner

Search our weather history database for the weather conditions in past years. The results will help you decide how hot, cold, wet, or windy it might be!

Date:

Astronomy

Jul. 11, 2013 Rise Set
Actual Time 5:55 AM PDT 8:13 PM PDT
Civil Twilight 5:27 AM PDT 8:42 PM PDT
Nautical Twilight 4:51 AM PDT 9:17 PM PDT
Astronomical Twilight 4:13 AM PDT 9:56 PM PDT
Moon 9:08 AM PDT (7/11) 10:08 PM PDT (7/11)
Length of Visible Light 15h 15m
Length of Day
14h 17m
Waxing Crescent, 11% of the Moon is Illuminated
Jul 11
Waxing Crescent
Jul 15
First Quarter
Jul 22
Full
Jul 29
Last Quarter
Aug 6
New

Hourly Weather History & Observations

Time (PDT) Temp. Dew Point Humidity Pressure Visibility Wind Dir Wind Speed Gust Speed Precip Events Conditions
12:53 AM 64.9 °F 60.1 °F 84% 29.89 in 10.0 mi Calm Calm - N/A   Clear
1:53 AM 64.9 °F 60.1 °F 84% 29.89 in 10.0 mi ESE 3.5 mph - N/A   Clear
2:53 AM 64.9 °F 61.0 °F 87% 29.91 in 10.0 mi ESE 6.9 mph - N/A   Clear
3:53 AM 64.9 °F 61.0 °F 87% 29.91 in 10.0 mi Calm Calm - N/A   Partly Cloudy
4:53 AM 66.0 °F 61.0 °F 84% 29.89 in 10.0 mi NE 3.5 mph - N/A   Clear
5:53 AM 64.9 °F 60.1 °F 84% 29.89 in 10.0 mi Calm Calm - N/A   Overcast
6:53 AM 64.9 °F 61.0 °F 87% 29.92 in 9.0 mi Calm Calm - N/A   Overcast
7:53 AM 66.0 °F 61.0 °F 84% 29.94 in 9.0 mi Calm Calm - N/A   Overcast
8:53 AM 66.9 °F 61.0 °F 81% 29.95 in 10.0 mi Calm Calm - N/A   Overcast
9:53 AM 66.9 °F 61.0 °F 81% 29.95 in 10.0 mi SSE 3.5 mph - N/A   Overcast
10:53 AM 71.1 °F 62.1 °F 73% 29.96 in 10.0 mi SSE 5.8 mph - N/A   Mostly Cloudy
11:53 AM 70.0 °F 61.0 °F 73% 29.97 in 10.0 mi SSE 4.6 mph - N/A   Mostly Cloudy
12:53 PM 72.0 °F 62.1 °F 71% 29.96 in 10.0 mi SSE 5.8 mph - N/A   Mostly Cloudy
1:53 PM 71.1 °F 62.1 °F 73% 29.95 in 10.0 mi SSE 6.9 mph - N/A   Mostly Cloudy
2:53 PM 73.0 °F 63.0 °F 71% 29.94 in 10.0 mi SSE 6.9 mph - N/A   Mostly Cloudy
3:53 PM 75.0 °F 63.0 °F 66% 29.92 in 10.0 mi SSW 6.9 mph - N/A   Mostly Cloudy
4:53 PM 75.9 °F 63.0 °F 64% 29.91 in 10.0 mi SSW 5.8 mph - N/A   Clear
5:53 PM 73.0 °F 62.1 °F 68% 29.89 in 10.0 mi West 6.9 mph - N/A   Clear
6:53 PM 72.0 °F 61.0 °F 68% 29.88 in 10.0 mi WSW 5.8 mph - N/A   Clear
7:53 PM 68.0 °F 60.1 °F 76% 29.89 in 10.0 mi West 6.9 mph - N/A   Clear
8:53 PM 66.0 °F 59.0 °F 78% 29.90 in 10.0 mi Calm Calm - N/A   Clear
9:53 PM 64.9 °F 60.1 °F 84% 29.91 in 10.0 mi Calm Calm - N/A   Clear
10:53 PM 64.0 °F 61.0 °F 90% 29.91 in 8.0 mi Calm Calm - N/A   Clear
11:53 PM 63.0 °F 60.1 °F 90% 29.92 in 8.0 mi Calm Calm - N/A   Clear